User: anonymous   Login
Location: Caltech
(34.1382°N, 118.1253°W)
Time: 22:21:31
(UTC-07:00)
Language:

SL-16 R/B - Orbit

View from above orbital plane
View from above orbital plane
View from above satellite
View from above satellite

Ground track
Ground track

The orbit data is extracted from the following two-line orbital elements,

1 28353U 04021B   17230.39314944  .00000291  00000-0  17754-3 0  9997
2 28353  71.0020 308.0099 0003210 114.4507 245.6950 14.14198776680957
Epoch (UTC): 18 August 2017 09:26:08
Eccentricity: 0.0003210
inclination: 71.0020°
perigee height: 843 km
apogee height: 847 km
right ascension of ascending node: 308.0099°
argument of perigee: 114.4507°
revolutions per day: 14.14198776
mean anomaly at epoch: 245.6950°
orbit number at epoch: 68095

The dashed part of the orbit path shows where the satellite is in the earth's shadow,  

DLR